Location: Caltech
(34.1382°N, 118.1253°W)
Time: 15:23:47
(UTC-07:00)

Cosmos 1626 - Visible Passes

Search period start: 23 July 2014 00:00
Search period end: 02 August 2014 00:00
Orbit: 517 x 523 km, 82.5° (Epoch: 23 July)

Date Brightness Start Highest point End Pass type
(mag) Time Alt. Az. Time Alt. Az. Time Alt. Az.
25 Jul 5.7 20:56:21 10° W 20:57:40 11° WNW 20:58:59 10° NW visible
26 Jul 5.5 20:41:54 10° WSW 20:43:53 14° WNW 20:45:53 10° NW visible
27 Jul 5.4 20:27:41 10° WSW 20:30:07 16° WNW 20:32:34 10° NW visible
01 Aug 5.2 05:31:16 10° NNE 05:34:18 22° ENE 05:37:20 10° SE visible
